#timestamp,LO_Frequency,Hit,StdDev 
1550102415.1,286046997.0,N
1550102435.9,286047001.2,N
1550102455.7,286046998.8,N
1550102475.6,286046999.3,N
1550102495.4,286046998.9,N
1550102515.2,286047000.6,N
1550102535.1,286046998.5,N
1550102536.0,286046998.5,N
1550102555.8,286047000.5,N
1550102575.7,286047001.2,N
1550102595.5,286046999.5,N
1550102615.3,286046998.9,N
1550102635.2,286046997.1,N
1550102655.0,286046996.8,N
1550102655.9,286046996.8,N
1550102675.8,286046997.7,N
1550102695.6,286046999.0,N
1550102715.4,286046998.8,N
1550102735.3,286046999.3,N
1550102755.1,286046998.9,N
1550102775.8,286046999.3,N
1550102795.7,286046999.1,N
1550102815.5,286046998.9,N
1550102835.4,286047001.2,N
1550102855.2,286046999.7,N
1550102875.0,286047001.5,N
1550102875.9,286047001.5,N
1550102895.8,286046998.4,N
1550102915.6,286047000.9,N
1550102935.5,286047000.1,N
1550102955.3,286047000.9,N
1550102975.1,286047000.8,N
1550102995.9,286047000.9,N
1550103015.7,286047001.5,N
1550103035.6,286047002.2,N
1550103055.4,286047000.3,N
1550103075.2,286047000.9,N
1550103095.1,286046998.5,N
1550103096.0,286046998.5,N
1550103115.8,286046999.4,N
1550103135.6,286046996.5,N
1550103155.5,286047000.9,N
1550103175.3,286047000.3,N
1550103195.2,286047002.8,N
1550103215.9,286047001.8,N
1550103235.7,286047002.0,N
1550103255.6,286047002.4,N
1550103275.4,286047000.6,N
1550103295.2,286046999.1,N
1550103315.1,286046996.6,N
1550103316.0,286046996.6,N
1550103335.8,286046999.4,N
1550103355.8,286046998.6,N
1550103375.6,286046998.3,N
1550103395.4,286046996.5,N
1550103415.3,286046996.8,N
1550103435.1,286046997.5,N
1550103455.8,286046995.6,N
1550103475.7,286046995.8,N
1550103495.5,286046996.2,N
1550103515.4,286046996.9,N
1550103535.2,286046999.2,N
1550103555.0,286047000.2,N
1550103555.9,286047000.2,N
1550103575.8,286047002.7,N
1550103595.6,286047001.8,N
1550103615.4,286047002.7,N
1550103635.3,286047002.5,N
1550103655.1,286047002.3,N
1550103675.9,286046999.7,N
1550103695.7,286047000.1,N
1550103715.5,286047001.1,N
1550103735.4,286047000.3,N
1550103755.2,286047002.8,N
1550103775.0,286046998.1,N
1550103776.0,286046998.1,N
1550103795.8,286046998.8,N
1550103815.6,286046997.4,N
1550103835.5,286046997.4,N
1550103855.3,286046996.6,N
1550103875.1,286046999.4,N
1550103895.9,286046999.6,N
1550103915.7,286046998.7,N
1550103935.6,286046998.8,N
1550103955.4,286047000.7,N
1550103975.2,286046998.7,N
1550103995.1,286046996.8,N
1550103996.0,286046996.8,N
1550104015.8,286046998.6,N
1550104035.7,286046997.7,N
1550104055.5,286046997.6,N
1550104075.3,286046996.2,N
1550104095.2,286046995.7,N
1550104115.0,286046996.1,N
1550104115.9,286046996.1,N
1550104135.7,286046997.1,N
1550104155.6,286046999.2,N
1550104175.4,286046996.5,N
1550104195.3,286046999.3,N
1550104215.1,286046998.7,N
1550104216.0,286046998.7,N
1550104235.8,286047000.7,N
1550104255.7,286047000.8,N
1550104275.5,286046999.9,N
1550104295.3,286047002.5,N
1550104315.2,286047002.3,N
1550104335.0,286046999.4,N
1550104335.9,286046999.4,N
1550104355.8,286046995.5,N
1550104375.6,286046995.8,N
1550104395.4,286046996.2,N
1550104415.3,286046998.0,N
1550104435.1,286046999.3,N
1550104455.8,286046998.9,N
1550104475.7,286047000.9,N
1550104495.5,286047001.9,N
1550104515.4,286047001.1,N
1550104535.2,286047001.0,N
1550104555.0,286047001.0,N
1550104555.9,286047001.0,N
1550104575.8,286047000.0,N
1550104595.6,286047000.7,N
1550104615.4,286047000.0,N
1550104635.3,286047002.7,N
1550104655.1,286047002.4,N
1550104675.9,286047001.8,N
1550104695.7,286047001.6,N
1550104715.5,286047002.5,N
1550104735.4,286047000.3,N
1550104755.2,286047000.2,N
1550104775.1,286047000.3,N
1550104776.0,286047000.3,N
1550104795.8,286047000.7,N
1550104815.6,286046999.3,N
1550104835.5,286046998.9,N
1550104855.3,286047000.9,N
1550104875.2,286046998.5,N
1550104895.9,286047000.8,N
1550104915.7,286047000.3,N
1550104935.6,286046998.6,N
1550104955.4,286047001.2,N
1550104975.2,286046999.5,N
1550104995.1,286046996.5,Y
1550104996.0,286046996.5,P
1550105015.8,286046998.7,N
1550105035.7,286046998.9,N
1550105055.5,286046998.9,N
1550105075.3,286047000.8,N
1550105095.2,286046998.7,N
1550105115.0,286046997.2,N
1550105115.9,286046997.2,N
1550105135.8,286046997.2,N
1550105155.6,286046997.3,N
1550105175.4,286046996.7,N
1550105195.3,286046996.1,N
1550105215.1,286046995.2,Y
1550105235.8,286046997.6,P
1550105255.7,286046995.9,P
1550105275.5,286046993.9,P
1550105295.4,286046993.3,Y
1550105315.2,286046998.4,P
1550105335.9,286046998.2,N
1550105355.7,286046998.3,N
1550105375.6,286047000.3,N
1550105395.4,286046998.4,N
1550105415.3,286046996.6,Y
1550105435.1,286046998.5,P
1550105436.0,286046998.5,P
1550105455.8,286047000.0,N
1550105475.7,286047000.2,N
1550105495.5,286047002.4,N
1550105515.3,286046999.9,N
1550105535.2,286046998.5,N
1550105555.0,286047000.6,N
1550105555.9,286047000.6,N
1550105575.8,286046998.2,N
1550105595.6,286046998.4,N
1550105615.4,286046998.2,N
1550105635.3,286046998.4,N
1550105655.1,286046998.1,N
1550105675.9,286046997.1,N
1550105695.7,286046998.9,N
1550105715.5,286046998.1,N
1550105735.4,286046998.1,N
1550105755.2,286046999.2,N
1550105775.0,286046997.6,N
1550105775.9,286046997.6,N
1550105795.8,286046997.3,N
1550105815.6,286046997.5,N
1550105835.5,286046995.5,Y
1550105855.3,286046995.6,P
1550105875.2,286046997.6,N
1550105895.9,286046996.2,N
1550105915.7,286046995.3,Y
1550105935.6,286046999.2,P
1550105955.4,286046999.4,N
1550105975.3,286046998.6,N
1550105995.1,286047000.9,N
1550105996.0,286047000.9,N
